Showing default

HYSIS, 43719

Orbit data source: Space-Track

HYSIS, 43719 is a payload satellite owned by ISRO (IN) in SSO that was launched on Thu, 29 Nov 2018 UTC via a PSLV launch vehicle from the Sirharikota (SRI). Payload-class satellites include a variety of spacecraft equipped with specific instruments for various scientific and technological missions. These include communications satellites like Starlink; space stations such as the ISS; scientific satellites like the Hubble; Earth observation satellites from companies like Planet Labs, Umbra, and HawkEye 360; GPS; miniature CubeSats for education and research; and military/defense satellites.

Loading next visibility...
Identifier
43719, 2018-096A
Orbit
SSO
Country
Flag of ININ / IND
Related business
Manufacturer
ISRO
Mission
Operational Civil Imaging
Bus & Motor
SSB-2, AOCS
Mass
380 kg wet, ~350 kg dry
Launch date (UTC)
2018-11-29 (7 years ago)
Launch vehicle
PSLV
Launch site
Sirharikota (SRI)
Object type
Payload
Rocket body
Debris
Shape & HBR
Box + 2 Pan, 3.0 m
Radar Cross Section
4.485 m², Large (>1 m²)

Expand to show TLE details & history
Last TLE update: 6 hours ago

TLE from 6 hours ago
0 HYSIS
1 43719U 18096A   25261.31034325  .00001107  00000-0  15822-3 0  9995
2 43719  98.0213 324.6515 0000524 116.5874 243.5391 14.78664662367247
Epoch: 2025-09-18T07:26Z
TLE epoch observation values (Epoch: 2025-09-18T07:26:53.656Z)
Latitude
-0°
Longitude
-144.54584°
Altitude
636.722 km
Speed
7.54 km/s
True Right ascension
21h 38m 36s
True Declination
0° 00' 00"
Sunlit
Object was in full shadow at epoch
Visualization orbit readout
Latitude
Unknown
Longitude
Unknown
Altitude
Unknown
Speed
Unknown
Apparent Right ascension
Unknown
Apparent Declination
Unknown
Sunlit
N/A
Visualization observer readout
Local Sidereal Time
06:42:01
Azimuth
Unknown
Elevation
Unknown
Doppler factor
Unknown
Orbital elements
Apogee altitude
630.958 km
Perigee altitude
630.223 km
Semi-major axis
7,008.727 km
Eccentricity
0.00005
Inclination
98.0213°
RAAN
324.6515°
Arg. of periapsis
116.5874°
True anomaly
243.53372°
Mean anomaly
243.5391°
Eccentric anomaly
243.53641°
Mean motion
3.699 °/min
Orbital period
97.32 mins
BSTAR
0.00015822
Loading maneuver chart data...
Computing Atmospheric mass density...

Documentation

Showing up to 5 results
|